Weather History for Annette Island, AK

Change the Weather History Date:

Friday, November 23, 2012

  Actual Average Record
Temperature  
Mean Temperature 43 °F 39 °F  
Max Temperature 46 °F 43 °F 53 °F (2005)
Min Temperature 40 °F 34 °F 0 °F (1995)
Degree Days  
Heating Degree Days 22 26  
Month to date heating degree days 539 563  
Since 1 July heating degree days 1967 1863  
Cooling Degree Days 0    
Month to date cooling degree days 0  
Year to date cooling degree days 7  
Moisture  
Dew Point 39 °F    
Average Humidity 0    
Maximum Humidity 0    
Minimum Humidity 0    
Precipitation  
Precipitation 0.02 in 0.39 in 2.67 in (1957)
Month to date precipitation 10.26 9.62  
Year to date precipitation 92.88 88.24  
Snow  
Snow 0.00 in 0.20 in 7.00 in (1973)
Month to date snowfall 0.0 2.4  
Since 1 July snowfall T 2.5  
Since 1 September snowfall 0.0 2.5  
Snow Depth 0.00 in    
Sea Level Pressure  
Sea Level Pressure 29.61 in    
Wind  
Wind Speed 17 mph (SE)    
Max Wind Speed 29 mph    
Max Gust Speed 45 mph    
Visibility 10 miles    
Events Rain    
T = Trace of Precipitation, MM = Missing Value Source: NWS Daily Summary

Daily Weather History Graph

Daily Weather History Graph

Search for Another Location

Airport:

Trip Planner

Search our weather history database for the weather conditions in past years. The results will help you decide how hot, cold, wet, or windy it might be!

Date:

Astronomy

Nov. 23, 2012 Rise Set
Actual Time 7:35 AM AKST 3:30 PM AKST
Civil Twilight 6:52 AM AKST 4:12 PM AKST
Nautical Twilight 6:06 AM AKST 4:58 PM AKST
Astronomical Twilight 5:23 AM AKST 5:41 PM AKST
Moon 1:23 PM AKST (11/23) 2:21 AM AKST (11/23)
Length of Visible Light 9h 20m
Length of Day
7h 55m
Waxing Gibbous, 81% of the Moon is Illuminated
Nov 23
Waxing Gibbous
Nov 28
Full
Dec 6
Last Quarter
Dec 12
New
Dec 19
First Quarter

Hourly Weather History & Observations

Time (AKST) Temp. Windchill Dew Point Humidity Pressure Visibility Wind Dir Wind Speed Gust Speed Precip Events Conditions
12:53 AM 45.0 °F 37.6 °F 36.0 °F 71% 29.55 in 10.0 mi SE 17.3 mph 25.3 mph N/A   Overcast
1:53 AM 43.0 °F 35.1 °F 37.9 °F 82% 29.56 in 10.0 mi SE 17.3 mph 26.5 mph 0.00 in Rain Light Rain
2:30 AM 44.6 °F 37.8 °F 37.4 °F 76% 29.56 in 10.0 mi SE 15.0 mph 29.9 mph 0.00 in   Overcast
3:53 AM 44.1 °F 38.1 °F 39.0 °F 82% 29.56 in 10.0 mi SE 11.5 mph - 0.00 in   Overcast
4:53 AM 41.0 °F 34.3 °F 37.0 °F 86% 29.57 in 10.0 mi ESE 11.5 mph 20.7 mph 0.01 in   Mostly Cloudy
5:00 AM 41.0 °F 32.8 °F 37.4 °F 87% 29.56 in 10.0 mi ESE 16.1 mph 21.9 mph N/A   Mostly Cloudy
5:53 AM 39.9 °F 32.5 °F 37.9 °F 93% 29.56 in 9.0 mi SE 12.7 mph 24.2 mph 0.01 in Rain Light Rain
6:53 AM 42.1 °F 34.5 °F 37.9 °F 85% 29.57 in 10.0 mi SE 15.0 mph 21.9 mph 0.00 in   Overcast
7:53 AM 42.1 °F 34.5 °F 37.9 °F 85% 29.59 in 10.0 mi SE 15.0 mph 23.0 mph N/A   Overcast
8:53 AM 45.0 °F 37.4 °F 39.0 °F 80% 29.61 in 10.0 mi SE 18.4 mph 27.6 mph 0.00 in Rain Light Rain
9:53 AM 45.0 °F 36.9 °F 37.9 °F 76% 29.62 in 10.0 mi SE 20.7 mph 28.8 mph 0.00 in   Overcast
10:30 AM 44.6 °F 36.4 °F 37.4 °F 76% 29.62 in 10.0 mi SE 20.7 mph 32.2 mph N/A   Overcast
10:53 AM 45.0 °F 37.1 °F 37.9 °F 76% 29.62 in 10.0 mi SE 19.6 mph 31.1 mph N/A   Overcast
11:20 AM 44.6 °F 36.6 °F 37.4 °F 76% 29.62 in 10.0 mi SE 19.6 mph 28.8 mph N/A   Overcast
11:53 AM 45.0 °F 36.6 °F 37.9 °F 76% 29.62 in 10.0 mi SE 21.9 mph 35.7 mph N/A   Overcast
12:08 PM 46.4 °F 38.7 °F 37.4 °F 71% 29.62 in 10.0 mi SE 20.7 mph 34.5 mph N/A   Overcast
12:53 PM 46.0 °F 38.3 °F 37.9 °F 73% 29.62 in 10.0 mi SSE 20.7 mph 32.2 mph N/A   Overcast
1:27 PM 46.4 °F 38.5 °F 37.4 °F 71% 29.62 in 10.0 mi SE 21.9 mph 35.7 mph 0.00 in Rain Light Rain
1:53 PM 46.0 °F 38.0 °F 37.9 °F 73% 29.62 in 10.0 mi SE 21.9 mph 33.4 mph 0.00 in   Overcast
2:32 PM 46.4 °F 39.0 °F 39.2 °F 76% 29.61 in 10.0 mi SE 19.6 mph 32.2 mph N/A   Overcast
2:53 PM 46.0 °F 37.4 °F 37.9 °F 73% 29.61 in 10.0 mi SE 25.3 mph 40.3 mph 0.00 in Rain Light Rain
3:53 PM 45.0 °F 36.4 °F 39.0 °F 80% 29.60 in 10.0 mi SE 23.0 mph 38.0 mph 0.03 in Rain Light Rain
4:53 PM 44.1 °F 35.4 °F 39.9 °F 85% 29.61 in 9.0 mi SE 21.9 mph 33.4 mph 0.04 in Rain Light Rain
5:53 PM 44.1 °F 35.9 °F 41.0 °F 89% 29.62 in 6.0 mi SSE 19.6 mph 34.5 mph 0.04 in Rain Light Rain
6:53 PM 44.1 °F 35.7 °F 41.0 °F 89% 29.62 in 6.0 mi SE 20.7 mph 32.2 mph 0.08 in Rain Rain
7:53 PM 44.1 °F 36.8 °F 41.0 °F 89% 29.63 in 6.0 mi SSE 16.1 mph 29.9 mph 0.08 in Rain Light Rain
8:53 PM 45.0 °F 36.9 °F 41.0 °F 86% 29.65 in 10.0 mi SSE 20.7 mph 31.1 mph 0.00 in   Overcast
9:20 PM 44.6 °F 37.2 °F 41.0 °F 87% 29.65 in 10.0 mi SSE 17.3 mph 29.9 mph N/A   Overcast
9:53 PM 46.0 °F 39.3 °F 39.9 °F 79% 29.66 in 10.0 mi SSE 16.1 mph 32.2 mph 0.00 in Rain Light Rain
10:22 PM 44.6 °F 37.4 °F 41.0 °F 87% 29.67 in 10.0 mi SSE 16.1 mph 28.8 mph 0.02 in Rain Light Rain
10:53 PM 45.0 °F 38.5 °F 41.0 °F 86% 29.68 in 10.0 mi SSE 13.8 mph 26.5 mph 0.03 in Rain Light Rain
11:53 PM 45.0 °F 38.2 °F 41.0 °F 86% 29.69 in 10.0 mi SSE 15.0 mph 29.9 mph 0.00 in   Overcast